Wetbulb
73.60 74.44 74.31 74.31 74.80 75.19 75.51 76.66 77.85 77.33 77.34 77.92 76.48 76.64 76.43 76.46 76.74 76.54 76.95 75.72 75.30 75.31 75.63 76.07 76.41 76.64 76.44 75.84 75.65 75.23 75.28 74.68 74.91 74.70 74.50 74.34 74.29 74.50 74.42 74.67 74.61 74.72 75.17
74.21 73.28 73.88 74.45 75.12 77.57 77.21 77.79 77.67 77.22 77.24 76.71 77.58 77.31 76.10 76.39 76.05 77.17 77.34 76.80 75.76 76.13 76.24 76.64 76.81 76.64 76.70 76.15 75.60 75.40 75.50 75.32 75.12 75.07 75.17 75.27 75.16 74.61 74.51 74.53 74.40 74.33 74.59
75.74 77.68 74.70 75.23 75.47 77.04 77.94 77.68 77.27 77.05 74.82 76.26 75.86 77.42 76.92 76.92 77.07 77.34 76.94 76.56 76.58 76.34 76.68 76.51 76.68 77.61 77.37 76.92 76.34 76.03 76.48 76.58 75.75 75.92 76.05 75.39 75.08 74.99 75.02 74.74 74.50 74.06 74.75
77.74 77.26 75.12 75.03 77.08 77.42 76.57 76.23 75.75 75.15 76.40 74.69 75.84 76.13 76.59 76.58 77.44 78.10 77.49 76.96 77.22 77.00 76.13 77.46 77.87 77.88 77.38 77.13 77.16 77.13 77.32 77.23 76.71 76.71 76.28 75.80 75.44 75.49 75.06 75.07 74.88 74.89 74.64
76.30 78.22 75.19 76.08 77.65 76.45 76.66 75.45 75.71 75.55 74.13 73.93 71.33 73.48 75.51 76.70 76.54 76.27 77.47 77.36 77.46 76.85 76.47 76.68 77.64 77.82 77.26 76.76 77.03 77.39 77.50 77.45 77.12 76.75 76.18 75.90 75.52 75.56 75.06 74.99 75.05 75.07 75.07
76.52 77.66 75.98 77.86 77.15 75.51 75.23 75.61 76.31 76.03 75.21 74.36 73.21 72.95 74.90 75.11 76.72 77.27 76.01 76.07 77.53 77.36 77.01 77.56 76.63 76.44 77.76 77.91 78.11 77.99 77.69 77.45 77.01 76.86 77.11 76.51 76.03 75.80 75.42 75.68 75.56 75.19 75.46
76.91 78.12 76.89 76.91 77.26 76.90 77.60 76.62 76.14 76.91 73.64 74.41 74.65 73.57 73.78 74.85 75.24 76.25 75.17 75.66 76.34 76.78 77.17 77.59 77.72 76.57 76.18 77.66 77.73 77.90 76.97 77.16 76.86 76.84 77.08 77.00 76.34 75.92 75.52 75.70 75.70 75.29 75.14
76.90 77.31 78.47 76.22 77.76 76.30 77.42 77.06 77.29 74.18 73.80 74.77 73.11 72.80 68.81 68.62 74.21 71.86 75.57 75.89 76.07 76.60 77.10 77.02 77.76 77.95 77.98 77.19 77.13 77.67 77.21 77.43 76.82 76.83 76.73 76.95 76.42 75.95 75.72 76.03 75.80 75.17 75.17
76.26 77.16 77.93 77.46 78.34 76.98 76.12 76.70 76.86 76.27 72.88 73.70 75.31 73.04 71.43 66.00 71.33 72.15 75.85 74.39 76.10 75.61 77.08 77.07 77.34 78.12 78.32 77.86 77.38 77.58 77.38 77.01 77.61 77.38 76.79 76.79 76.75 76.13 75.62 75.47 75.70 75.35 75.02
76.07 76.31 77.18 77.64 77.79 76.86 78.01 76.98 75.96 76.47 75.83 72.29 74.64 74.82 74.91 74.64 70.24 69.80 70.46 74.72 72.95 74.02 75.86 75.23 76.48 77.87 77.71 77.57 75.83 77.11 76.82 76.54 77.04 77.68 77.28 77.14 76.80 75.99 75.33 75.31 75.60 75.47 75.00
75.99 75.67 76.77 78.44 77.79 76.11 78.09 78.55 77.27 76.79 76.35 73.18 73.64 74.63 73.88 73.05 73.98 70.64 68.17 67.47 72.89 72.83 75.26 74.29 75.59 75.74 78.02 77.74 77.44 77.20 76.24 75.55 75.82 76.70 77.47 77.92 77.29 76.27 75.53 75.11 75.41 75.10 75.02
75.00 75.96 75.81 77.96 78.40 77.26 77.74 77.14 77.33 77.23 76.95 76.75 74.77 75.68 72.07 70.19 70.93 70.25 68.35 69.40 69.26 70.59 71.85 72.75 74.37 75.59 76.66 77.42 76.37 75.48 75.93 74.87 74.32 74.70 75.47 76.60 77.38 77.58 76.50 75.54 75.48 75.49 75.35
73.01 76.08 77.13 78.06 76.56 78.30 77.61 77.67 78.99 77.87 77.26 75.84 76.76 73.84 74.64 72.36 72.38 71.55 70.48 69.30 68.92 72.19 73.34 73.11 73.66 76.05 75.70 77.11 78.13 76.02 74.00 72.88 73.27 73.33 73.54 74.36 75.31 76.15 76.78 76.84 76.42 76.02 75.94
74.14 77.98 76.96 76.85 78.05 78.35 78.03 78.38 75.72 75.61 77.11 75.39 76.38 77.56 74.54 73.54 73.35 72.76 71.40 70.00 68.60 70.28 73.96 74.11 74.39 74.57 77.59 79.56 77.82 76.57 75.84 72.03 72.64 71.73 71.21 72.32 73.02 73.73 74.63 75.68 75.97 76.23 76.40
74.24 76.63 76.29 76.88 77.76 77.07 77.49 79.07 74.98 77.07 76.72 76.24 76.04 76.59 75.71 74.77 73.70 73.58 73.20 72.16 72.83 67.63 69.84 72.78 71.17 76.61 76.41 76.06 76.67 77.27 77.42 72.46 71.75 71.14 70.28 69.76 70.78 72.07 72.75 73.52 74.05 74.13 74.42
77.24 76.82 77.32 77.07 77.66 78.19 78.12 78.94 76.16 77.45 77.44 76.20 75.37 76.92 77.24 75.14 75.21 74.41 74.58 73.34 73.51 71.42 69.08 72.35 73.35 72.81 76.41 75.93 77.00 76.90 77.04 74.64 71.96 71.30 70.61 69.39 69.12 70.12 70.96 71.80 72.13 72.58 72.79
77.55 76.95 77.77 77.69 77.99 77.52 78.21 78.04 78.77 78.32 77.08 77.89 76.68 76.87 76.94 79.21 74.87 73.93 74.15 73.79 73.32 73.36 71.41 72.14 74.47 74.89 78.44 77.55 77.00 78.08 78.10 78.12 76.33 70.92 70.60 69.57 68.63 68.70 69.25 69.71 70.44 70.92 71.07
76.27 77.67 77.75 77.99 77.68 77.60 78.08 77.38 76.03 76.28 76.29 76.11 76.66 77.24 75.86 75.51 77.59 77.80 74.47 76.56 74.04 75.39 73.11 73.23 74.07 74.27 76.29 77.93 79.75 79.62 77.04 76.70 76.85 72.03 69.88 68.80 67.93 67.67 67.36 67.70 67.99 68.12 68.10
76.52 75.09 77.40 77.41 77.29 76.76 77.63 77.66 77.92 77.02 76.20 76.37 76.66 77.70 76.75 77.13 77.43 75.85 76.84 75.11 74.70 74.85 76.18 73.50 72.82 75.12 75.44 75.69 76.98 78.35 78.91 77.80 77.48 71.27 69.71 68.49 67.71 67.04 66.31 65.58 65.40 64.90 63.81
77.99 77.41 77.50 77.41 76.90 76.98 76.83 77.00 77.56 77.51 76.83 76.22 78.34 78.87 77.89 77.65 77.97 78.15 76.16 77.75 75.64 74.82 74.09 73.04 72.39 72.96 73.81 76.32 74.81 75.68 75.08 75.15 75.69 75.66 74.54 74.60 71.25 68.71 67.00 65.29 64.72 64.43 61.55
77.54 78.19 77.66 77.17 77.41 76.03 75.25 77.35 77.37 76.53 77.53 77.32 78.22 77.80 78.57 77.72 73.61 73.65 75.21 76.55 77.53 74.44 73.31 73.01 71.34 71.74 71.35 71.05 71.17 77.16 74.74 72.93 75.45 76.00 75.46 74.40 74.52 74.55 73.45 66.66 70.37 67.24 63.82
78.33 78.28 77.63 77.33 77.16 75.09 70.44 69.61 74.63 76.19 76.95 76.91 75.35 77.82 78.80 75.04 74.25 70.44 70.16 69.77 71.91 74.42 74.37 73.32 72.17 71.91 73.61 75.01 74.81 75.43 74.91 70.80 71.54 75.78 79.44 73.78 77.74 74.52 74.85 73.94 69.60 66.90 63.82
78.31 78.26 77.66 77.66 77.47 77.66 68.26 66.88 68.89 74.48 75.58 77.26 77.87 77.71 75.76 74.59 75.01 76.63 70.61 69.82 68.28 66.51 67.09 72.12 70.66 71.11 72.82 74.33 75.18 73.42 74.14 73.84 73.21 75.82 74.98 73.33 74.28 73.42 75.55 71.57 65.80 64.07 62.39
78.16 77.93 77.35 78.08 77.96 77.30 67.10 65.47 67.32 75.08 75.78 76.23 76.52 76.37 76.83 77.17 76.81 75.04 75.85 74.80 73.53 73.61 71.62 70.08 70.80 70.61 68.88 65.50 65.82 69.24 70.97 71.40 71.18 71.20 72.67 69.29 72.09 70.91 72.42 70.09 63.10 62.60 61.13
77.49 77.23 76.86 78.24 78.16 78.01 65.05 64.51 68.16 75.59 75.04 76.29 76.48 76.85 76.85 76.64 65.24 65.69 72.38 71.44 71.13 71.80 67.59 63.55 62.71 61.70 60.50 60.54 60.76 61.03 62.82 62.95 62.68 64.99 69.43 68.37 69.34 67.74 66.67 64.51 64.34 60.98 58.99
77.96 77.57 78.07 78.52 73.95 78.22 64.66 62.45 67.68 74.50 74.22 73.32 76.28 77.50 68.23 71.08 63.22 62.80 70.42 70.37 69.18 70.08 70.79 70.22 69.43 65.17 62.55 64.00 60.69 64.63 65.24 63.64 64.30 64.52 69.80 68.71 68.56 65.99 63.19 59.77 60.12 62.11 60.26
MSLP
1016.82 1017.03 1016.88 1016.86 1016.70 1016.38 1016.50 1016.58 1016.24 1016.29 1016.20 1016.34 1016.40 1016.13 1015.70 1015.85 1015.82 1016.38 1016.71 1017.83 1018.26 1018.67 1018.86 1018.99 1019.17 1019.33 1019.51 1019.69 1019.81 1019.96 1020.14 1020.27 1020.46 1020.70 1020.84 1021.00 1021.17 1021.36 1021.57 1021.72 1021.84 1021.90 1021.87
1016.85 1016.82 1016.95 1016.81 1016.53 1016.20 1016.25 1016.16 1016.04 1015.96 1015.22 1015.15 1015.72 1015.93 1015.68 1015.58 1016.31 1016.46 1016.18 1017.27 1018.16 1018.52 1018.63 1018.71 1018.80 1018.97 1019.18 1019.39 1019.58 1019.72 1019.87 1020.07 1020.22 1020.44 1020.65 1020.75 1020.87 1021.07 1021.28 1021.37 1021.53 1021.59 1021.61
1017.02 1016.91 1016.34 1016.20 1015.97 1016.28 1016.64 1016.33 1015.86 1015.07 1015.76 1015.05 1015.23 1015.22 1014.92 1015.48 1015.84 1016.23 1016.27 1016.31 1017.34 1018.00 1018.25 1018.39 1018.53 1018.61 1018.77 1018.99 1019.20 1019.43 1019.63 1019.85 1020.02 1020.14 1020.33 1020.49 1020.69 1020.80 1020.93 1021.08 1021.28 1021.40 1021.44
1016.94 1017.05 1016.14 1016.02 1015.85 1016.18 1015.70 1015.56 1015.39 1015.03 1014.82 1014.95 1014.93 1014.67 1014.54 1014.63 1014.98 1015.62 1015.59 1015.60 1016.09 1016.39 1017.67 1017.93 1018.13 1018.32 1018.51 1018.68 1018.84 1019.06 1019.29 1019.48 1019.69 1019.85 1019.99 1020.11 1020.26 1020.44 1020.63 1020.88 1021.02 1021.15 1021.24
1016.88 1016.97 1015.71 1015.68 1016.41 1015.76 1015.63 1015.45 1015.68 1015.61 1014.91 1014.34 1015.35 1015.00 1014.16 1014.36 1014.37 1014.37 1014.90 1015.13 1015.54 1015.89 1016.72 1017.41 1017.77 1017.96 1018.19 1018.34 1018.55 1018.73 1018.88 1019.06 1019.28 1019.52 1019.64 1019.74 1019.89 1020.05 1020.20 1020.47 1020.72 1020.88 1020.97
1016.72 1016.93 1015.77 1016.28 1016.61 1015.72 1015.79 1015.93 1016.33 1016.11 1015.78 1014.83 1014.09 1013.84 1014.05 1014.22 1014.30 1014.28 1014.43 1014.79 1015.13 1015.49 1015.48 1016.56 1017.15 1017.41 1017.71 1017.87 1018.07 1018.25 1018.47 1018.65 1018.85 1019.08 1019.24 1019.40 1019.56 1019.75 1019.91 1020.09 1020.30 1020.52 1020.70
1016.64 1016.91 1016.25 1016.51 1016.72 1016.17 1016.53 1016.77 1016.52 1015.94 1015.63 1015.07 1014.92 1014.47 1014.28 1014.76 1014.68 1014.26 1015.33 1015.04 1014.61 1014.57 1015.18 1015.64 1015.61 1016.34 1017.14 1017.40 1017.64 1017.87 1018.10 1018.32 1018.51 1018.72 1018.94 1019.14 1019.33 1019.52 1019.70 1019.93 1020.14 1020.31 1020.47
1016.49 1016.71 1016.79 1016.25 1016.32 1016.18 1016.58 1017.03 1016.96 1016.35 1015.39 1015.35 1014.87 1014.45 1016.34 1016.86 1015.69 1015.39 1014.70 1014.39 1014.66 1014.43 1015.08 1015.61 1015.60 1015.80 1015.88 1016.23 1016.87 1017.44 1017.70 1017.90 1018.11 1018.32 1018.62 1018.93 1019.20 1019.39 1019.54 1019.72 1019.92 1020.12 1020.29
1016.61 1016.77 1016.77 1016.79 1016.69 1016.69 1016.56 1016.87 1016.91 1016.66 1015.70 1015.51 1015.66 1015.46 1016.21 1017.17 1015.65 1015.52 1014.48 1015.01 1014.53 1014.62 1014.48 1014.92 1015.38 1015.68 1015.87 1015.73 1016.61 1016.92 1017.25 1017.54 1017.75 1017.98 1018.23 1018.52 1018.82 1019.10 1019.30 1019.44 1019.62 1019.82 1020.02
1016.37 1016.46 1016.63 1016.76 1017.08 1016.66 1016.51 1016.57 1016.63 1016.87 1016.66 1015.79 1015.20 1014.82 1015.66 1015.85 1015.44 1015.68 1014.93 1014.12 1014.12 1013.88 1014.34 1014.11 1014.01 1015.13 1015.53 1015.72 1015.90 1016.33 1016.85 1017.30 1017.55 1017.77 1017.99 1018.22 1018.49 1018.74 1018.96 1019.16 1019.37 1019.55 1019.73
1015.97 1016.16 1016.37 1016.50 1016.78 1016.85 1016.55 1016.65 1016.52 1016.88 1016.69 1016.22 1015.90 1015.23 1015.43 1015.20 1015.00 1015.03 1014.41 1014.91 1013.57 1013.61 1013.77 1013.92 1013.69 1013.96 1014.94 1015.31 1015.38 1015.90 1016.67 1017.10 1017.35 1017.55 1017.76 1017.97 1018.20 1018.41 1018.61 1018.81 1019.01 1019.22 1019.39
1015.41 1015.85 1016.03 1016.16 1016.35 1016.60 1016.62 1016.59 1016.94 1016.98 1016.92 1016.84 1016.35 1015.94 1015.31 1015.19 1015.29 1014.80 1014.65 1014.37 1013.85 1013.81 1013.71 1013.85 1013.78 1013.89 1014.20 1014.65 1015.53 1016.13 1016.60 1016.92 1017.12 1017.28 1017.44 1017.62 1017.79 1018.01 1018.22 1018.41 1018.60 1018.78 1018.98
1014.88 1014.93 1015.76 1015.92 1016.18 1016.46 1016.44 1016.41 1016.74 1016.93 1016.89 1016.96 1016.88 1016.34 1015.60 1015.52 1015.24 1015.28 1015.06 1014.66 1014.12 1013.92 1013.67 1013.92 1013.72 1013.98 1014.18 1014.52 1014.83 1015.74 1016.29 1016.61 1016.86 1017.02 1017.16 1017.27 1017.44 1017.63 1017.80 1017.99 1018.17 1018.28 1018.43
1013.95 1014.45 1015.02 1015.49 1015.67 1015.91 1016.10 1016.25 1016.64 1016.71 1016.57 1016.63 1016.84 1016.89 1016.45 1015.70 1015.26 1015.19 1015.08 1014.93 1014.58 1014.31 1014.67 1014.36 1013.77 1013.66 1013.98 1014.27 1014.89 1015.50 1015.62 1016.11 1016.41 1016.61 1016.82 1016.95 1017.08 1017.28 1017.49 1017.65 1017.82 1018.00 1018.18
1014.52 1014.56 1014.83 1015.35 1015.43 1015.74 1016.08 1016.13 1016.28 1016.31 1016.34 1016.57 1016.48 1016.67 1016.77 1016.13 1015.29 1014.93 1014.94 1014.94 1014.99 1014.88 1014.92 1015.08 1014.71 1013.94 1013.87 1014.15 1014.92 1014.84 1014.96 1015.52 1015.81 1016.05 1016.32 1016.54 1016.73 1016.87 1017.03 1017.21 1017.45 1017.64 1017.87
1013.86 1013.98 1014.40 1014.74 1015.10 1015.32 1015.66 1015.97 1015.91 1015.80 1016.10 1016.31 1016.33 1016.43 1016.49 1015.87 1015.46 1014.98 1014.85 1014.85 1015.01 1015.41 1014.81 1014.31 1014.17 1014.31 1014.45 1014.03 1014.54 1014.77 1014.75 1015.20 1015.50 1015.58 1015.79 1016.03 1016.25 1016.46 1016.64 1016.84 1017.03 1017.26 1017.49
1013.50 1014.05 1014.32 1014.40 1014.69 1014.93 1015.16 1015.64 1015.70 1015.56 1015.78 1016.10 1016.28 1016.34 1016.37 1016.09 1016.04 1015.43 1015.00 1015.17 1015.10 1015.00 1015.24 1015.01 1014.65 1014.30 1014.15 1014.40 1014.50 1014.63 1014.40 1014.23 1013.92 1014.41 1014.80 1015.25 1015.61 1015.87 1016.09 1016.31 1016.52 1016.70 1016.97
1013.40 1013.65 1013.94 1014.29 1014.67 1014.58 1014.89 1015.31 1015.39 1015.32 1015.47 1015.57 1015.78 1015.83 1015.59 1015.35 1015.94 1015.88 1015.69 1015.56 1015.30 1015.20 1015.47 1015.27 1015.05 1014.61 1014.38 1014.27 1014.07 1014.16 1014.14 1013.60 1013.33 1013.51 1014.25 1014.77 1015.15 1015.37 1015.61 1015.84 1015.98 1016.16 1016.45
1012.94 1013.16 1013.55 1013.91 1014.14 1014.34 1014.64 1014.77 1014.96 1015.16 1015.16 1014.90 1014.83 1014.99 1014.86 1015.11 1015.58 1015.34 1015.58 1015.20 1014.81 1015.03 1015.11 1015.02 1014.68 1014.25 1013.49 1013.40 1013.42 1013.74 1013.98 1013.86 1013.37 1013.50 1014.06 1014.38 1014.62 1014.86 1015.20 1015.54 1015.77 1015.83 1016.02
1011.98 1012.38 1012.70 1013.12 1013.56 1013.83 1014.09 1014.30 1014.41 1014.67 1014.81 1014.67 1014.46 1014.29 1014.35 1014.62 1014.89 1015.24 1015.38 1015.43 1015.32 1015.15 1014.82 1014.48 1014.21 1013.87 1013.31 1012.71 1012.93 1013.06 1013.70 1013.72 1013.26 1012.20 1012.49 1012.78 1013.50 1014.02 1014.37 1014.79 1015.28 1015.60 1015.80
1011.61 1012.03 1012.31 1012.56 1012.95 1013.23 1013.34 1013.56 1013.71 1013.82 1013.99 1014.06 1013.89 1013.93 1013.94 1014.18 1014.45 1014.81 1014.98 1014.79 1015.00 1015.10 1014.73 1014.50 1014.24 1014.09 1013.31 1013.35 1013.70 1013.32 1013.69 1013.54 1012.78 1011.93 1011.84 1012.47 1012.83 1013.09 1013.53 1014.16 1014.12 1014.61 1015.15
1010.92 1011.32 1011.58 1011.83 1012.10 1012.27 1012.31 1012.68 1012.98 1013.04 1013.24 1013.49 1013.85 1013.74 1013.55 1013.67 1013.92 1014.17 1014.43 1014.64 1015.05 1015.27 1015.12 1015.03 1014.55 1014.36 1014.04 1013.84 1013.85 1013.79 1013.80 1013.80 1013.16 1012.03 1012.03 1012.15 1011.99 1012.67 1012.27 1012.46 1012.80 1013.49 1014.36
1010.22 1010.48 1010.69 1010.89 1011.07 1011.48 1011.73 1012.10 1012.43 1012.59 1012.47 1012.47 1012.69 1012.79 1012.89 1012.72 1012.98 1013.34 1014.02 1014.42 1014.91 1015.00 1015.15 1015.12 1014.89 1014.60 1014.41 1014.40 1014.15 1013.91 1013.60 1013.46 1013.06 1012.78 1012.60 1012.16 1011.70 1011.40 1011.56 1012.54 1013.25 1013.69 1014.26
1009.58 1009.91 1010.23 1010.35 1010.53 1010.77 1011.18 1011.64 1012.00 1012.22 1012.18 1012.24 1012.47 1012.58 1012.70 1012.84 1013.11 1013.48 1013.64 1013.73 1013.78 1013.81 1014.26 1014.50 1014.34 1014.35 1014.66 1014.82 1014.93 1014.45 1013.99 1013.47 1012.94 1012.39 1012.23 1011.66 1011.47 1011.16 1012.08 1012.98 1013.70 1013.98 1014.29
1009.15 1009.54 1009.89 1010.19 1010.37 1010.43 1010.65 1011.13 1011.68 1011.78 1011.70 1011.82 1012.02 1012.18 1012.32 1012.55 1013.34 1013.56 1013.80 1013.81 1013.77 1013.47 1013.28 1013.69 1014.10 1014.39 1014.58 1014.65 1014.95 1014.89 1013.83 1013.28 1012.07 1011.27 1010.94 1010.77 1010.74 1012.04 1013.09 1013.70 1014.02 1014.31 1014.42
1008.20 1008.30 1008.90 1009.68 1010.25 1010.44 1010.51 1010.78 1011.13 1011.02 1010.87 1011.02 1011.25 1011.51 1012.24 1012.81 1013.62 1014.01 1014.20 1014.04 1013.67 1013.25 1013.00 1013.10 1013.50 1013.83 1013.91 1013.91 1014.36 1014.42 1013.88 1013.04 1012.18 1011.22 1010.71 1010.53 1010.90 1012.16 1013.36 1014.18 1014.53 1014.52 1014.63
Wind_Speed
4 4 3 4 4 3 4 3 4 2 4 5 4 3 5 3 6 3 6 13 13 11 12 12 11 10 10 10 10 10 9 8 9 10 10 10 10 10 11 12 13 13 12
5 6 5 7 7 5 1 2 3 4 5 7 9 6 5 1 5 3 3 9 11 10 9 12 13 12 11 11 11 10 10 9 9 10 10 10 10 10 12 12 13 12 12
5 7 6 4 5 3 3 6 6 8 8 5 9 5 7 3 5 4 6 4 10 13 12 11 12 12 13 13 12 12 11 10 11 11 11 10 10 10 10 10 10 9 10
8 7 4 8 4 4 5 3 3 5 3 6 5 7 4 6 6 9 9 4 9 9 12 13 12 12 14 13 13 12 11 11 11 11 11 10 10 10 9 9 8 8 10
7 9 7 5 2 3 2 3 6 2 7 7 12 8 2 4 7 6 7 6 5 8 9 13 13 13 14 14 13 12 12 11 11 11 11 10 10 8 10 9 9 9 9
8 6 6 5 5 5 4 5 5 6 6 4 11 3 1 3 3 5 8 2 8 5 7 11 10 11 16 15 13 13 12 11 11 11 10 9 9 8 8 8 9 9 8
9 6 9 7 6 5 5 3 6 7 6 4 6 8 6 6 7 3 4 7 6 5 5 6 5 8 9 14 13 12 12 12 11 10 9 9 9 9 8 7 7 8 8
7 8 8 5 7 2 6 3 5 7 5 4 9 7 5 12 1 9 9 4 2 5 7 5 1 2 7 10 13 14 12 12 11 11 10 10 9 9 8 8 8 8 8
11 10 8 8 2 6 3 5 5 4 7 3 3 4 3 7 4 8 3 4 2 5 3 6 6 3 4 1 11 11 13 11 11 11 12 12 11 10 10 9 9 9 8
11 11 9 7 5 6 3 4 6 4 3 5 3 1 4 4 3 2 7 8 4 5 4 6 10 7 6 6 4 8 12 10 9 10 11 12 12 11 11 10 9 9 9
12 12 10 9 8 7 6 5 2 2 3 6 4 2 3 6 1 7 6 3 2 4 5 4 2 2 9 4 5 8 12 10 9 9 9 10 11 11 11 11 11 10 10
11 11 12 9 8 7 8 6 5 5 5 6 7 7 5 5 1 6 5 6 7 5 5 5 3 2 1 4 3 13 9 9 9 9 10 10 10 11 12 12 12 11 10
7 12 12 9 9 9 9 6 6 6 6 6 5 8 8 4 5 5 6 7 7 2 3 4 3 2 2 2 5 5 11 10 10 9 9 10 10 10 11 12 12 12 12
8 3 13 11 11 10 10 7 7 9 8 7 8 7 8 8 5 5 5 7 7 5 3 4 6 4 4 2 8 8 7 13 11 10 9 9 10 10 10 10 11 10 10
5 10 11 12 11 11 8 8 9 8 6 5 8 7 6 8 8 5 5 5 3 8 0 5 2 3 3 5 7 5 7 12 12 11 10 10 10 10 10 11 11 11 10
8 4 11 12 12 11 10 8 9 10 7 6 7 7 7 9 7 6 5 7 3 6 9 6 5 3 10 4 3 6 7 9 12 13 12 12 11 11 11 11 12 11 11
8 7 9 10 10 10 11 9 8 10 8 8 9 8 10 7 7 8 6 6 8 5 7 9 9 6 4 5 6 8 9 9 9 18 15 14 13 12 11 12 12 12 12
8 11 10 10 10 11 10 10 11 11 10 10 11 10 10 8 8 8 8 8 8 7 6 10 9 11 9 10 7 7 9 10 10 10 13 12 11 12 11 11 12 12 12
13 14 12 11 11 12 11 12 10 10 11 11 10 10 10 9 8 8 8 10 7 8 7 9 9 10 9 8 7 8 6 7 9 11 12 13 13 11 9 9 10 11 11
13 14 13 13 13 12 12 11 11 11 11 12 11 11 9 10 8 8 10 8 9 10 11 10 9 9 10 10 6 5 4 6 11 10 15 11 16 15 13 12 10 10 10
13 12 13 13 13 14 13 14 13 12 12 13 10 10 11 11 9 7 9 9 8 8 9 8 7 10 7 4 5 4 4 8 9 4 7 5 8 7 9 12 9 14 12
13 13 14 14 14 13 14 12 11 12 12 10 11 12 11 10 10 13 14 10 7 10 12 10 11 12 13 10 7 5 5 7 7 10 5 10 5 7 10 9 11 10 13
13 14 14 14 15 15 11 11 12 13 11 9 9 9 10 11 8 8 4 5 7 10 11 11 12 13 12 10 9 9 8 7 8 8 10 8 10 10 5 7 8 8 9
13 13 13 14 14 13 13 13 13 12 12 12 11 11 11 11 9 6 10 10 10 10 9 9 10 9 8 6 8 10 9 9 10 10 10 12 10 9 5 3 8 1 8
12 13 13 13 14 14 15 15 13 13 13 13 12 12 12 10 6 3 6 9 10 10 5 9 8 7 9 7 5 5 11 11 12 10 9 11 10 4 2 2 3 3 5
12 11 12 12 12 13 11 14 14 11 12 10 10 11 7 3 8 4 7 9 11 11 9 10 7 10 12 10 12 9 8 10 10 11 7 7 2 5 3 2 2 1 3
Wind_Direction
182 179 167 220 236 185 228 234 227 203 240 205 241 302 211 264 331 100 129 158 174 194 212 217 219 224 224 218 214 219 222 229 234 236 234 238 239 238 243 254 255 259 263
176 184 189 215 211 253 223 245 15 305 239 169 179 214 284 353 142 265 166 164 174 199 211 213 212 212 216 220 220 222 224 229 233 235 238 238 240 245 250 251 250 251 255
159 296 223 245 227 133 296 228 242 226 165 131 239 212 174 166 183 215 207 167 168 193 210 212 212 210 213 215 216 219 222 224 233 235 236 235 237 235 243 244 247 245 242
178 220 183 217 113 246 222 241 276 309 310 122 325 172 131 166 165 175 217 133 178 172 193 206 211 211 213 215 215 217 218 222 224 227 230 232 230 229 234 236 240 246 233
192 261 238 142 155 221 300 25 275 339 320 324 136 257 217 160 206 153 136 215 100 191 181 184 199 204 211 214 219 224 221 219 211 218 223 224 228 223 220 220 230 237 243
219 233 242 65 247 222 218 19 334 4 294 353 313 77 327 185 187 131 208 323 136 170 160 163 191 198 206 209 211 217 220 212 207 212 218 215 217 223 214 216 216 227 248
206 204 269 165 253 299 31 342 281 223 308 346 306 276 156 203 208 145 202 131 142 138 98 160 243 171 189 199 198 201 207 207 207 211 211 208 212 213 215 220 225 227 230
224 206 267 246 202 305 161 255 311 302 251 74 315 309 67 353 161 256 154 121 354 157 149 194 183 219 181 190 178 189 194 198 200 199 200 202 209 212 213 215 221 227 231
206 228 202 265 345 293 200 191 233 299 315 299 276 320 76 196 250 332 126 356 176 97 217 147 198 182 215 169 159 179 186 189 198 196 193 194 200 207 211 212 214 219 226
210 213 222 215 239 266 277 191 220 267 268 308 300 342 342 351 359 232 303 173 244 202 126 273 156 177 202 235 128 84 162 184 194 198 199 199 200 203 210 213 214 215 221
211 214 217 209 216 227 251 282 268 228 272 283 316 321 337 286 210 307 346 262 220 245 173 197 52 192 166 244 171 163 161 179 195 203 208 208 207 211 214 215 215 218 223
188 214 213 219 220 231 257 196 251 247 283 318 322 324 287 319 191 286 294 299 292 337 253 323 242 9 57 173 136 130 166 192 205 214 217 215 212 215 217 220 222 223 227
230 184 203 210 199 218 258 215 215 281 224 266 242 278 301 285 288 300 303 279 269 312 302 321 280 165 286 181 144 170 174 193 206 214 216 217 221 219 217 220 224 226 226
227 238 177 211 215 204 213 239 226 233 232 224 233 256 299 295 257 273 283 308 314 310 344 261 313 234 189 255 132 170 209 190 197 205 214 218 219 223 225 224 224 229 230
238 210 180 204 209 216 223 214 233 254 246 249 239 226 254 279 282 253 258 263 317 300 139 278 288 339 223 225 127 250 294 185 197 203 213 218 222 223 223 224 226 225 226
193 202 190 198 212 201 213 213 244 219 234 243 232 259 246 264 292 284 272 274 225 261 283 287 277 177 264 333 311 251 270 155 200 203 207 207 211 217 220 222 220 221 222
207 210 205 204 207 207 209 210 248 279 206 223 248 264 234 259 274 279 289 269 264 279 284 298 302 316 337 225 270 284 274 241 237 199 200 201 207 213 216 221 218 214 214
233 198 210 206 223 215 220 215 225 245 229 240 239 250 249 240 223 251 266 289 289 272 237 250 277 286 286 285 252 232 268 277 282 190 190 200 211 219 224 223 218 214 211
205 217 207 215 219 224 220 222 227 235 252 257 256 242 239 239 247 277 297 291 273 238 239 262 282 277 273 271 270 220 243 277 268 152 179 201 212 214 217 226 227 220 211
206 209 214 210 219 224 229 235 229 228 245 248 245 252 250 254 254 248 260 274 264 273 283 273 270 274 263 246 219 264 279 257 257 240 206 200 193 200 201 205 216 228 219
208 214 216 217 215 222 222 219 229 230 228 239 257 258 243 242 250 269 272 276 302 281 284 307 301 287 282 5 315 289 249 274 292 270 280 176 186 194 203 202 216 211 208
208 208 216 216 220 227 223 212 220 224 234 217 232 256 259 255 231 214 220 233 276 272 274 279 283 286 291 304 309 289 276 281 280 285 280 282 231 217 232 204 134 154 181
211 212 215 218 217 221 217 190 197 229 247 248 241 247 264 271 273 295 175 201 249 223 230 270 279 277 285 294 296 286 285 272 266 273 286 267 245 236 177 107 94 133 176
213 213 219 220 219 218 205 191 189 220 232 243 255 265 266 272 281 291 264 255 272 272 222 228 255 278 306 347 324 316 311 289 272 268 262 267 272 284 74 79 43 179 181
217 221 225 223 224 224 198 195 192 225 231 234 240 247 254 262 96 102 262 273 276 278 210 189 237 263 271 278 262 297 268 272 270 264 248 241 243 128 131 83 35 18 171
221 220 217 227 232 236 196 189 194 225 228 235 229 224 124 236 120 145 259 265 272 272 280 287 243 226 239 243 225 240 277 269 271 274 282 294 168 149 170 44 29 30 103